Vichy, MO

7:01 AM CST on February 06, 2016 (GMT -0600)
Rolla National

Weather History for KVIH - October, 2012

Change the Weather History Date:

Monday, October 22, 2012

  Actual Average Record
Temperature  
Mean Temperature 72 °F 55 °F  
Max Temperature 79 °F 66 °F 86 °F (1903)
Min Temperature 65 °F 44 °F 29 °F (1976)
Degree Days  
Heating Degree Days 0 11  
Month to date heating degree days 235 175  
Since 1 July heating degree days 317 239  
Cooling Degree Days 7 1  
Month to date cooling degree days 11 25  
Year to date cooling degree days 1677 1243  
Growing Degree Days 22 (Base 50)    
Moisture  
Dew Point 63 °F    
Average Humidity 77    
Maximum Humidity 93    
Minimum Humidity 60    
Precipitation  
Precipitation 0.00 in 0.12 in 1.73 in (1951)
Month to date precipitation 2.63 2.47  
Year to date precipitation 29.19 36.06  
Sea Level Pressure  
Sea Level Pressure 29.88 in    
Wind  
Wind Speed 13 mph (South)    
Max Wind Speed 23 mph    
Max Gust Speed 29 mph    
Visibility 10 miles    
Events      
T = Trace of Precipitation, MM = Missing Value Source: NWS Daily Summary

Daily Weather History Graph

Daily Weather History Graph

Search for Another Location

Airport or City:

Trip Planner

Search our weather history database for the weather conditions in past years. The results will help you decide how hot, cold, wet, or windy it might be!

Date:

Astronomy

Oct. 22, 2012 Rise Set
Actual Time 7:23 AM CDT 6:19 PM CDT
Civil Twilight 6:56 AM CDT 6:45 PM CDT
Nautical Twilight 6:25 AM CDT 7:16 PM CDT
Astronomical Twilight 5:54 AM CDT 7:47 PM CDT
Moon 2:21 PM CDT (10/22) 12:16 AM CDT (10/22)
Length of Visible Light 11h 49m
Length of Day
10h 55m
First Quarter, 56% of the Moon is Illuminated
Oct 22
First Quarter
Oct 29
Full
Nov 6
Last Quarter
Nov 13
New
Nov 20
First Quarter

Hourly Weather History & Observations

Time (CDT) Temp. Dew Point Humidity Pressure Visibility Wind Dir Wind Speed Gust Speed Precip Events Conditions
12:32 AM 66.2 °F 64.4 °F 94% 29.92 in 10.0 mi South 8.1 mph - N/A   Partly Cloudy
12:53 AM 66.9 °F 64.0 °F 90% 29.89 in 9.0 mi South 6.9 mph - N/A   Clear
1:53 AM 66.9 °F 64.0 °F 90% 29.88 in 10.0 mi SSE 9.2 mph - N/A   Clear
2:53 AM 68.0 °F 64.9 °F 90% 29.87 in 10.0 mi SSE 10.4 mph - N/A   Clear
3:53 AM 68.0 °F 64.0 °F 87% 29.86 in 10.0 mi SSE 13.8 mph - N/A   Partly Cloudy
4:53 AM 66.9 °F 63.0 °F 87% 29.86 in 10.0 mi SSE 15.0 mph - N/A   Clear
5:53 AM 66.0 °F 62.1 °F 87% 29.87 in 10.0 mi SSE 12.7 mph - N/A   Clear
6:53 AM 64.9 °F 60.1 °F 84% 29.88 in 10.0 mi SSE 13.8 mph - N/A   Clear
7:53 AM 64.9 °F 60.1 °F 84% 29.89 in 10.0 mi South 15.0 mph - N/A   Clear
8:53 AM 66.9 °F 60.1 °F 79% 29.90 in 10.0 mi South 18.4 mph - N/A   Clear
9:53 AM 71.1 °F 63.0 °F 75% 29.89 in 10.0 mi South 15.0 mph 23.0 mph N/A   Clear
10:53 AM 73.9 °F 64.0 °F 71% 29.88 in 10.0 mi South 15.0 mph 25.3 mph N/A   Partly Cloudy
11:53 AM 77.0 °F 64.4 °F 65% 29.90 in 10.0 mi South 17.3 mph - N/A   Partly Cloudy
12:53 PM 79.0 °F 64.9 °F 62% 29.86 in 10.0 mi South 15.0 mph 21.9 mph N/A   Partly Cloudy
1:53 PM 78.1 °F 64.9 °F 64% 29.86 in 10.0 mi SSW 11.5 mph 23.0 mph N/A   Mostly Cloudy
2:53 PM 77.0 °F 64.9 °F 66% 29.85 in 10.0 mi South 13.8 mph 20.7 mph N/A   Overcast
3:53 PM 78.1 °F 64.0 °F 62% 29.85 in 10.0 mi South 15.0 mph - N/A   Overcast
4:53 PM 77.0 °F 64.0 °F 64% 29.87 in 10.0 mi South 15.0 mph 20.7 mph N/A   Mostly Cloudy
5:53 PM 77.0 °F 63.0 °F 62% 29.88 in 10.0 mi South 12.7 mph - N/A   Overcast
6:53 PM 75.9 °F 63.0 °F 64% 29.89 in 10.0 mi SSW 16.1 mph 25.3 mph N/A   Overcast
7:53 PM 72.0 °F 64.9 °F 78% 29.91 in 10.0 mi South 9.2 mph - N/A   Overcast
8:53 PM 72.0 °F 64.9 °F 78% 29.91 in 10.0 mi South 10.4 mph - N/A   Overcast
9:53 PM 71.1 °F 64.0 °F 78% 29.92 in 10.0 mi SSW 8.1 mph - N/A   Clear
10:53 PM 70.0 °F 63.0 °F 78% 29.92 in 10.0 mi South 8.1 mph - N/A   Clear